Tracking 19628 objects as of 26-May-2019
HD Live streaming from Space Station
objects crossing your sky now
Watch Starlink satellites crossing your sky!

ESSA 2 (OT-2)

Track ESSA 2 (OT-2) now!
10-day predictions
ESSA 2 (OT-2) is classified as:


NORAD ID: 2091
Int'l Code: 1966-016A
Perigee: 1,361.2 km
Apogee: 1,422.1 km
Inclination: 101.2 °
Period: 113.4 minutes
Semi major axis: 7762 km
RCS: 0.8236 m2 (medium)
Launch date: February 28, 1966
Source: United States (US)
Launch site: AIR FORCE EASTERN TEST RANGE (AFETR)
aabbcc
Your satellite tracking list
Your tracking list is empty




NASA's NSSDC Master Catalog

Two Line Element Set (TLE):
1  2091U 66016A   19145.80451088 -.00000023 +00000-0 +10269-3 0  9992
2  2091 101.1700 082.9138 0039231 092.9526 321.5557 12.69378295466349
Source of the keplerian elements: AFSPC